N143CR X51-KMTH

Flight info

Callsign N143CR
Flight time N/A
Altitude 8000
Route MAYNR
Aircraft BT36/L-VGD/C

Departure

Time N/A
Airport X51

Arrival

Time 2026-05-08 02:14
Airport Florida Keys Marathon International Airport (KMTH)
Time Latitude Longitude Altitude Speed Heading
2026-05-08 01:15 25.50167 -80.54623 15 ft 0 kts 353°
2026-05-08 01:27 25.50168 -80.54623 13 ft 1 kts 353°
2026-05-08 01:28 25.50176 -80.54604 14 ft 7 kts 58°
2026-05-08 01:28 25.50228 -80.54607 14 ft 0 kts 349°
2026-05-08 01:33 25.50229 -80.54607 14 ft 1 kts 351°
2026-05-08 01:33 25.50263 -80.54607 13 ft 9 kts 338°
2026-05-08 01:34 25.50277 -80.54735 14 ft 43 kts 269°
2026-05-08 01:34 25.50276 -80.55346 194 ft 94 kts 271°
2026-05-08 01:34 25.50283 -80.56045 832 ft 89 kts 271°
2026-05-08 01:34 25.50160 -80.56716 1354 ft 100 kts 230°
2026-05-08 01:35 25.49509 -80.56977 1908 ft 104 kts 181°
2026-05-08 01:35 25.48762 -80.56888 2429 ft 111 kts 173°
2026-05-08 01:35 25.48026 -80.56773 3015 ft 107 kts 172°
2026-05-08 01:35 25.47281 -80.56664 3577 ft 106 kts 170°
2026-05-08 01:36 25.46548 -80.56560 4122 ft 107 kts 175°
2026-05-08 01:36 25.45814 -80.56473 4715 ft 105 kts 168°
2026-05-08 01:36 25.45087 -80.56297 5244 ft 109 kts 168°
2026-05-08 01:36 25.44362 -80.56106 5831 ft 105 kts 165°
2026-05-08 01:37 25.43651 -80.55854 6366 ft 110 kts 161°
2026-05-08 01:37 25.42923 -80.55675 6875 ft 109 kts 177°
2026-05-08 01:37 25.42180 -80.55676 7421 ft 107 kts 183°
2026-05-08 01:37 25.41429 -80.55667 7938 ft 109 kts 182°
2026-05-08 01:38 25.40539 -80.55719 8043 ft 149 kts 183°
2026-05-08 01:38 25.39420 -80.55774 8042 ft 168 kts 182°
2026-05-08 01:38 25.38235 -80.55811 8035 ft 172 kts 181°
2026-05-08 01:38 25.37037 -80.55844 8031 ft 172 kts 181°
2026-05-08 01:39 25.35854 -80.55879 8030 ft 173 kts 181°
2026-05-08 01:39 25.34654 -80.55917 8032 ft 173 kts 181°
2026-05-08 01:39 25.33453 -80.55956 8030 ft 173 kts 181°
2026-05-08 01:39 25.32252 -80.55994 8032 ft 173 kts 181°
2026-05-08 01:40 25.31053 -80.56034 8038 ft 172 kts 181°
2026-05-08 01:40 25.29861 -80.56072 8038 ft 171 kts 181°
2026-05-08 01:40 25.28670 -80.56110 8037 ft 172 kts 181°
2026-05-08 01:40 25.27475 -80.56149 8038 ft 172 kts 181°
2026-05-08 01:41 25.26302 -80.56187 8037 ft 170 kts 181°
2026-05-08 01:41 25.25122 -80.56225 8036 ft 169 kts 181°
2026-05-08 01:41 25.23943 -80.56262 8035 ft 170 kts 181°
2026-05-08 01:41 25.22761 -80.56301 8035 ft 170 kts 181°
2026-05-08 01:42 25.21578 -80.56339 8033 ft 170 kts 181°
2026-05-08 01:42 25.20391 -80.56377 8039 ft 171 kts 181°
2026-05-08 01:42 25.19193 -80.56416 8041 ft 173 kts 181°
2026-05-08 01:42 25.17990 -80.56454 8043 ft 174 kts 181°
2026-05-08 01:43 25.16792 -80.56493 8044 ft 174 kts 181°
2026-05-08 01:43 25.15580 -80.56532 8045 ft 175 kts 181°
2026-05-08 01:43 25.14365 -80.56571 8046 ft 175 kts 181°
2026-05-08 01:43 25.13148 -80.56610 8046 ft 175 kts 181°
2026-05-08 01:44 25.11929 -80.56649 8046 ft 175 kts 181°
2026-05-08 01:44 25.10709 -80.56689 8046 ft 176 kts 181°
2026-05-08 01:44 25.09487 -80.56728 8046 ft 176 kts 181°
2026-05-08 01:44 25.08283 -80.56767 8049 ft 175 kts 181°
2026-05-08 01:45 25.07063 -80.56806 8049 ft 175 kts 181°
2026-05-08 01:45 25.05844 -80.56845 8050 ft 175 kts 181°
2026-05-08 01:45 25.04626 -80.56884 8049 ft 175 kts 181°
2026-05-08 01:45 25.03408 -80.56923 8049 ft 175 kts 181°
2026-05-08 01:46 25.02188 -80.56962 8047 ft 176 kts 181°
2026-05-08 01:46 25.00967 -80.57002 8046 ft 176 kts 181°
2026-05-08 01:46 24.99738 -80.57041 8047 ft 176 kts 181°
2026-05-08 01:46 24.98513 -80.57081 8047 ft 177 kts 181°
2026-05-08 01:47 24.97302 -80.57120 8045 ft 177 kts 181°
2026-05-08 01:47 24.96073 -80.57159 8046 ft 177 kts 181°
2026-05-08 01:47 24.94844 -80.57198 8046 ft 177 kts 181°
2026-05-08 01:48 24.92386 -80.57277 8046 ft 177 kts 181°
2026-05-08 01:48 24.91157 -80.57317 8046 ft 177 kts 181°
2026-05-08 01:48 24.89928 -80.57356 8046 ft 177 kts 181°
2026-05-08 01:48 24.88700 -80.57395 8046 ft 177 kts 181°
2026-05-08 01:49 24.87471 -80.57435 8046 ft 177 kts 181°
2026-05-08 01:49 24.86258 -80.57474 8046 ft 177 kts 181°
2026-05-08 01:49 24.85029 -80.57513 8046 ft 177 kts 181°
2026-05-08 01:49 24.83800 -80.57553 8046 ft 177 kts 181°
2026-05-08 01:50 24.82622 -80.57855 8039 ft 177 kts 211°
2026-05-08 01:50 24.81795 -80.58840 8035 ft 178 kts 244°
2026-05-08 01:50 24.81475 -80.60152 8039 ft 178 kts 258°
2026-05-08 01:50 24.81221 -80.61486 8038 ft 178 kts 258°
2026-05-08 01:51 24.80963 -80.62819 8039 ft 178 kts 257°
2026-05-08 01:51 24.80703 -80.64152 8039 ft 178 kts 257°
2026-05-08 01:51 24.80442 -80.65486 8040 ft 178 kts 257°
2026-05-08 01:51 24.80184 -80.66802 8040 ft 178 kts 257°
2026-05-08 01:52 24.79923 -80.68136 8040 ft 178 kts 257°
2026-05-08 01:52 24.79661 -80.69471 8039 ft 178 kts 257°
2026-05-08 01:52 24.79399 -80.70803 8039 ft 178 kts 257°
2026-05-08 01:52 24.79138 -80.72138 8039 ft 178 kts 257°
2026-05-08 01:53 24.78875 -80.73472 8041 ft 178 kts 257°
2026-05-08 01:53 24.78613 -80.74806 8041 ft 178 kts 257°
2026-05-08 01:53 24.78351 -80.76141 8040 ft 178 kts 257°
2026-05-08 01:53 24.78091 -80.77457 8040 ft 178 kts 257°
2026-05-08 01:54 24.77829 -80.78792 8037 ft 178 kts 257°
2026-05-08 01:54 24.77567 -80.80126 8037 ft 178 kts 257°
2026-05-08 01:54 24.77303 -80.81460 8036 ft 178 kts 257°
2026-05-08 01:54 24.77040 -80.82795 8036 ft 178 kts 257°
2026-05-08 01:55 24.76778 -80.84129 8035 ft 178 kts 257°
2026-05-08 01:55 24.76515 -80.85460 8035 ft 178 kts 257°
2026-05-08 01:55 24.76257 -80.86777 8032 ft 172 kts 257°
2026-05-08 01:55 24.76012 -80.88018 8021 ft 161 kts 257°
2026-05-08 01:56 24.75777 -80.89200 7855 ft 163 kts 257°
2026-05-08 01:56 24.75525 -80.90484 7391 ft 178 kts 257°
2026-05-08 01:56 24.75260 -80.91832 6969 ft 181 kts 257°
2026-05-08 01:56 24.74994 -80.93171 6629 ft 178 kts 257°
2026-05-08 01:57 24.74732 -80.94491 6274 ft 176 kts 258°
2026-05-08 01:57 24.74473 -80.95795 5906 ft 174 kts 258°
2026-05-08 01:57 24.74217 -80.97088 5547 ft 172 kts 258°
2026-05-08 01:57 24.73962 -80.98375 5184 ft 172 kts 258°
2026-05-08 01:58 24.73710 -80.99644 4837 ft 172 kts 259°
2026-05-08 01:58 24.73434 -81.00925 4462 ft 173 kts 254°
2026-05-08 01:58 24.73009 -81.02162 4100 ft 173 kts 250°
2026-05-08 01:58 24.72573 -81.03396 3739 ft 173 kts 250°
2026-05-08 01:59 24.72140 -81.04626 3385 ft 172 kts 250°
2026-05-08 01:59 24.71710 -81.05848 3109 ft 167 kts 250°
2026-05-08 01:59 24.71311 -81.06977 3096 ft 151 kts 250°
2026-05-08 01:59 24.70945 -81.08015 3089 ft 141 kts 251°
2026-05-08 02:00 24.70600 -81.08996 3087 ft 134 kts 251°
2026-05-08 02:00 24.70270 -81.09934 3092 ft 129 kts 251°
2026-05-08 02:00 24.69951 -81.10840 3091 ft 126 kts 251°
2026-05-08 02:00 24.69643 -81.11717 3091 ft 124 kts 251°
2026-05-08 02:01 24.69335 -81.12593 3104 ft 122 kts 251°
2026-05-08 02:01 24.69030 -81.13459 3098 ft 121 kts 251°
2026-05-08 02:01 24.68727 -81.14322 3101 ft 121 kts 250°
2026-05-08 02:01 24.68423 -81.15188 3103 ft 122 kts 251°
2026-05-08 02:02 24.68115 -81.16062 3106 ft 124 kts 251°
2026-05-08 02:02 24.67794 -81.16971 3117 ft 134 kts 251°
2026-05-08 02:02 24.67444 -81.17969 3125 ft 145 kts 251°
2026-05-08 02:02 24.67077 -81.19015 3117 ft 152 kts 251°
2026-05-08 02:03 24.66693 -81.20106 3116 ft 155 kts 250°
2026-05-08 02:03 24.66300 -81.21218 3120 ft 157 kts 250°
2026-05-08 02:03 24.65901 -81.22347 3120 ft 159 kts 250°
2026-05-08 02:03 24.65499 -81.23486 3122 ft 160 kts 251°
2026-05-08 02:04 24.65096 -81.24629 3112 ft 160 kts 250°
2026-05-08 02:04 24.64694 -81.25767 3119 ft 160 kts 251°
2026-05-08 02:04 24.64248 -81.26889 3119 ft 161 kts 245°
2026-05-08 02:04 24.63763 -81.27996 3119 ft 161 kts 246°
2026-05-08 02:05 24.63289 -81.29094 3117 ft 161 kts 246°
2026-05-08 02:05 24.62806 -81.30207 3112 ft 161 kts 247°
2026-05-08 02:05 24.62309 -81.31306 3114 ft 161 kts 240°
2026-05-08 02:05 24.61420 -81.32031 3107 ft 163 kts 198°
2026-05-08 02:06 24.60306 -81.32002 3103 ft 163 kts 159°
2026-05-08 02:06 24.59446 -81.31234 3103 ft 161 kts 121°
2026-05-08 02:06 24.59189 -81.30070 3106 ft 158 kts 83°
2026-05-08 02:06 24.59601 -81.28991 3102 ft 154 kts 47°
2026-05-08 02:07 24.60470 -81.28386 3102 ft 151 kts 18°
2026-05-08 02:07 24.61460 -81.28013 3106 ft 150 kts 18°
2026-05-08 02:07 24.62445 -81.27630 3110 ft 150 kts 19°
2026-05-08 02:07 24.63432 -81.27248 3110 ft 151 kts 18°
2026-05-08 02:08 24.64309 -81.26647 3103 ft 153 kts 50°
2026-05-08 02:08 24.64754 -81.25588 3108 ft 154 kts 68°
2026-05-08 02:08 24.65177 -81.24498 3007 ft 154 kts 64°
2026-05-08 02:08 24.65597 -81.23446 2885 ft 147 kts 64°
2026-05-08 02:09 24.65990 -81.22433 2686 ft 147 kts 65°
2026-05-08 02:09 24.66392 -81.21389 2442 ft 149 kts 65°
2026-05-08 02:09 24.66795 -81.20340 2205 ft 149 kts 65°
2026-05-08 02:09 24.67197 -81.19292 1961 ft 148 kts 65°
2026-05-08 02:10 24.67582 -81.18287 1910 ft 136 kts 65°
2026-05-08 02:10 24.67935 -81.17369 1896 ft 126 kts 64°
2026-05-08 02:10 24.68272 -81.16494 1902 ft 123 kts 65°
2026-05-08 02:10 24.68605 -81.15628 1804 ft 124 kts 64°
2026-05-08 02:11 24.68934 -81.14763 1659 ft 125 kts 65°
2026-05-08 02:11 24.69274 -81.13878 1492 ft 125 kts 65°
2026-05-08 02:11 24.69598 -81.13031 1339 ft 111 kts 66°
2026-05-08 02:11 24.69860 -81.12340 1192 ft 83 kts 65°
2026-05-08 02:12 24.70061 -81.11825 965 ft 73 kts 64°
2026-05-08 02:12 24.70287 -81.11266 938 ft 85 kts 65°
2026-05-08 02:12 24.70526 -81.10633 899 ft 95 kts 65°
2026-05-08 02:12 24.70783 -81.09945 804 ft 98 kts 65°
2026-05-08 02:13 24.71043 -81.09271 677 ft 94 kts 65°
2026-05-08 02:13 24.71293 -81.08627 559 ft 92 kts 64°
2026-05-08 02:13 24.71532 -81.07987 460 ft 89 kts 66°
2026-05-08 02:13 24.71777 -81.07358 342 ft 91 kts 66°
2026-05-08 02:14 24.72013 -81.06710 213 ft 89 kts 65°
2026-05-08 02:14 24.72252 -81.06086 93 ft 88 kts 64°
2026-05-08 02:14 24.72479 -81.05497 14 ft 70 kts 65°
2026-05-08 02:14 24.72634 -81.05100 8 ft 46 kts 67°
2026-05-08 02:15 24.72741 -81.04821 8 ft 34 kts 66°
2026-05-08 02:15 24.72796 -81.04653 12 ft 15 kts 95°
2026-05-08 02:15 24.72782 -81.04541 13 ft 14 kts 96°
2026-05-08 02:15 24.72806 -81.04491 13 ft 8 kts 274°
2026-05-08 02:16 24.72766 -81.04531 13 ft 9 kts 194°
2026-05-08 02:16 24.72722 -81.04588 12 ft 11 kts 247°
2026-05-08 02:16 24.72688 -81.04620 11 ft 2 kts 272°
2026-05-08 02:16 24.72688 -81.04621 11 ft 0 kts 288°